Weather History for KRZL - May, 2012

Change the Weather History Date:

Tuesday, May 22, 2012

  Actual Average (KVPZ) Record (KVPZ)
Temperature  
Mean Temperature 58 °F 61 °F  
Max Temperature 68 °F 72 °F 87 °F (2007)
Min Temperature 48 °F 50 °F 36 °F (2006)
Degree Days  
Heating Degree Days 7 6  
Month to date heating degree days 180  
Since 1 July heating degree days 6239  
Cooling Degree Days 0 2  
Month to date cooling degree days 22  
Year to date cooling degree days 27  
Growing Degree Days 8 (Base 50)    
Moisture  
Dew Point 42 °F    
Average Humidity 57    
Maximum Humidity 87    
Minimum Humidity 28    
Precipitation  
Precipitation 0.00 in 0.13 in 0.23 in (2011)
Month to date precipitation 2.78  
Year to date precipitation 11.96  
Sea Level Pressure  
Sea Level Pressure 30.01 in    
Wind  
Wind Speed 7 mph (North)    
Max Wind Speed 14 mph    
Max Gust Speed 18 mph    
Visibility 10 miles    
Events      
T = Trace of Precipitation, MM = Missing Value Source: NWS Daily Summary

Daily Weather History Graph

Daily Weather History Graph

Search for Another Location

Airport or City:

Trip Planner

Search our weather history database for the weather conditions in past years. The results will help you decide how hot, cold, wet, or windy it might be!

Date:

Astronomy

May. 22, 2012 Rise Set
Actual Time 5:24 AM CDT 8:06 PM CDT
Civil Twilight 4:52 AM CDT 8:38 PM CDT
Nautical Twilight 4:12 AM CDT 9:18 PM CDT
Astronomical Twilight 3:27 AM CDT 10:04 PM CDT
Moon 6:34 AM CDT (5/22) 9:44 PM CDT (5/22)
Length of Visible Light 15h 46m
Length of Day
14h 42m
Waxing Crescent, 3% of the Moon is Illuminated
May 22
Waxing Crescent
May 28
First Quarter
Jun 4
Full
Jun 11
Last Quarter
Jun 19
New

Hourly Weather History & Observations

Time (CDT) Temp. Dew Point Humidity Pressure Visibility Wind Dir Wind Speed Gust Speed Precip Events Conditions
12:15 AM 51.8 °F 44.6 °F 76% 30.09 in 10.0 mi NW 3.5 mph - N/A   Clear
12:35 AM 50.0 °F 44.6 °F 82% 30.08 in 10.0 mi NW 4.6 mph - N/A   Clear
12:55 AM 50.0 °F 44.6 °F 82% 30.07 in 10.0 mi NW 6.9 mph - N/A   Clear
1:15 AM 50.0 °F 44.6 °F 82% 30.07 in 10.0 mi NW 6.9 mph - N/A   Clear
1:35 AM 50.0 °F 44.6 °F 82% 30.07 in 10.0 mi NW 4.6 mph - N/A   Clear
1:55 AM 50.0 °F 44.6 °F 82% 30.07 in 10.0 mi NNW 5.8 mph - N/A   Clear
2:15 AM 50.0 °F 44.6 °F 82% 30.06 in 10.0 mi NNW 6.9 mph - N/A   Clear
2:35 AM 50.0 °F 44.6 °F 82% 30.06 in 10.0 mi NW 6.9 mph - N/A   Clear
2:55 AM 50.0 °F 44.6 °F 82% 30.06 in 10.0 mi NNW 6.9 mph - N/A   Clear
3:35 AM 50.0 °F 44.6 °F 82% 30.06 in 10.0 mi NNW 6.9 mph - N/A   Clear
4:15 AM 50.0 °F 44.6 °F 82% 30.06 in 10.0 mi NNW 6.9 mph - N/A   Clear
4:35 AM 50.0 °F 44.6 °F 82% 30.06 in 10.0 mi NNW 8.1 mph - N/A   Clear
4:55 AM 50.0 °F 44.6 °F 82% 30.06 in 10.0 mi NNW 6.9 mph - N/A   Clear
5:15 AM 48.2 °F 44.6 °F 87% 30.06 in 10.0 mi NNW 5.8 mph - N/A   Clear
5:35 AM 50.0 °F 44.6 °F 82% 30.06 in 10.0 mi NNW 5.8 mph - N/A   Clear
5:55 AM 50.0 °F 46.4 °F 87% 30.06 in 10.0 mi NNW 5.8 mph - N/A   Clear
6:15 AM 50.0 °F 46.4 °F 87% 30.07 in 10.0 mi NNW 5.8 mph - N/A   Clear
6:35 AM 51.8 °F 46.4 °F 82% 30.07 in 10.0 mi NNW 6.9 mph - N/A   Clear
6:55 AM 53.6 °F 46.4 °F 77% 30.07 in 10.0 mi North 8.1 mph - N/A   Clear
7:15 AM 53.6 °F 46.4 °F 77% 30.07 in 10.0 mi North 9.2 mph - N/A   Clear
7:35 AM 55.4 °F 48.2 °F 77% 30.07 in 10.0 mi North 10.4 mph - N/A   Clear
7:55 AM 55.4 °F 48.2 °F 77% 30.07 in 10.0 mi North 10.4 mph - N/A   Clear
8:15 AM 57.2 °F 46.4 °F 67% 30.07 in 10.0 mi North 10.4 mph - N/A   Clear
8:35 AM 59.0 °F 48.2 °F 67% 30.07 in 10.0 mi North 11.5 mph - N/A   Clear
8:55 AM 59.0 °F 46.4 °F 63% 30.06 in 10.0 mi NNE 10.4 mph - N/A   Clear
9:15 AM 60.8 °F 46.4 °F 59% 30.06 in 10.0 mi North 10.4 mph - N/A   Clear
9:35 AM 60.8 °F 44.6 °F 55% 30.06 in 10.0 mi North 10.4 mph - N/A   Clear
9:55 AM 62.6 °F 44.6 °F 52% 30.06 in 10.0 mi North 13.8 mph - N/A   Clear
10:15 AM 62.6 °F 44.6 °F 52% 30.05 in 10.0 mi North 10.4 mph 17.3 mph N/A   Clear
10:35 AM 62.6 °F 44.6 °F 52% 30.05 in 10.0 mi NNE 11.5 mph 17.3 mph N/A   Clear
10:55 AM 64.4 °F 42.8 °F 45% 30.05 in 10.0 mi North 9.2 mph 18.4 mph N/A   Clear
11:15 AM 64.4 °F 42.8 °F 45% 30.05 in 10.0 mi NNE 6.9 mph - N/A   Clear
11:55 AM 64.4 °F 41.0 °F 42% 30.03 in 10.0 mi North 9.2 mph 16.1 mph N/A   Clear
12:15 PM 66.2 °F 42.8 °F 43% 30.03 in 10.0 mi North 12.7 mph 16.1 mph N/A   Clear
12:35 PM 68.0 °F 41.0 °F 37% 30.03 in 10.0 mi North 8.1 mph 16.1 mph N/A   Clear
12:55 PM 68.0 °F 41.0 °F 37% 30.02 in 10.0 mi North 10.4 mph 17.3 mph N/A   Clear
1:15 PM 68.0 °F 39.2 °F 35% 30.01 in 10.0 mi North 3.5 mph - N/A   Clear
1:35 PM 68.0 °F 41.0 °F 37% 30.00 in 10.0 mi North 10.4 mph 18.4 mph N/A   Clear
1:55 PM 68.0 °F 41.0 °F 37% 30.00 in 10.0 mi North 12.7 mph 17.3 mph N/A   Clear
2:15 PM 68.0 °F 39.2 °F 35% 29.99 in 10.0 mi North 10.4 mph - N/A   Clear
2:35 PM 68.0 °F 37.4 °F 33% 29.99 in 10.0 mi North 9.2 mph - N/A   Clear
3:15 PM 68.0 °F 35.6 °F 30% 29.98 in 10.0 mi North 9.2 mph - N/A   Clear
3:35 PM 68.0 °F 35.6 °F 30% 29.97 in 10.0 mi NW 10.4 mph - N/A   Clear
3:55 PM 68.0 °F 35.6 °F 30% 29.97 in 10.0 mi North 8.1 mph - N/A   Clear
4:15 PM 68.0 °F 35.6 °F 30% 29.96 in 10.0 mi NNE 10.4 mph - N/A   Clear
4:35 PM 68.0 °F 33.8 °F 28% 29.96 in 10.0 mi North 9.2 mph - N/A   Clear
4:55 PM 68.0 °F 33.8 °F 28% 29.96 in 10.0 mi North 9.2 mph - N/A   Clear
5:15 PM 68.0 °F 33.8 °F 28% 29.96 in 10.0 mi North 6.9 mph - N/A   Clear
5:35 PM 68.0 °F 35.6 °F 30% 29.96 in 10.0 mi NNW 9.2 mph - N/A   Clear
5:55 PM 66.2 °F 35.6 °F 32% 29.95 in 10.0 mi North 8.1 mph - N/A   Clear
6:15 PM 66.2 °F 35.6 °F 32% 29.95 in 10.0 mi North 9.2 mph - N/A   Clear
6:35 PM 64.4 °F 37.4 °F 37% 29.95 in 10.0 mi NNE 6.9 mph - N/A   Clear
6:55 PM 64.4 °F 37.4 °F 37% 29.95 in 10.0 mi North 10.4 mph - N/A   Clear
7:15 PM 62.6 °F 35.6 °F 37% 29.94 in 10.0 mi North 8.1 mph - N/A   Clear
7:55 PM 60.8 °F 37.4 °F 42% 29.94 in 10.0 mi North 6.9 mph - N/A   Clear
8:15 PM 59.0 °F 39.2 °F 48% 29.94 in 7.0 mi North 4.6 mph - N/A   Clear
8:35 PM 59.0 °F 39.2 °F 48% 29.94 in 10.0 mi North 3.5 mph - N/A   Clear
8:55 PM 57.2 °F 39.2 °F 51% 29.94 in 10.0 mi North 3.5 mph - N/A   Clear
9:15 PM 57.2 °F 39.2 °F 51% 29.95 in 10.0 mi North 4.6 mph - N/A   Clear
9:35 PM 55.4 °F 39.2 °F 54% 29.95 in 10.0 mi North 4.6 mph - N/A   Clear
9:55 PM 53.6 °F 41.0 °F 62% 29.95 in 10.0 mi NNE 4.6 mph - N/A   Clear
10:15 PM 53.6 °F 41.0 °F 62% 29.96 in 10.0 mi NNE 4.6 mph - N/A   Clear
10:35 PM 51.8 °F 41.0 °F 67% 29.95 in 10.0 mi NE 4.6 mph - N/A   Clear
11:15 PM 53.6 °F 41.0 °F 62% 29.95 in 10.0 mi NE 4.6 mph - N/A   Clear
11:35 PM 51.8 °F 41.0 °F 67% 29.95 in 10.0 mi North 3.5 mph - N/A   Clear
11:55 PM 51.8 °F 41.0 °F 67% 29.94 in 10.0 mi NNE 4.6 mph - N/A   Clear